Location: San Pelegr�n
(42.1868°N, 0.0079°E)
Time: 14:30:40
(UTC+00:00)

ISS - Pass Details

Date: 24 January 2020
Orbit: 415 x 422 km, 51.6° (Epoch: 27 February)

Event Time Altitude Azimuth Distance (km) Brightness Sun altitude
Rises 18:52:56 0° 267° (W) 2,374 1.7 -20.2°
Reaches altitude 10° 18:55:15 10° 280° (W) 1,510 0.1 -20.6°
Maximum altitude 18:58:11 27° 340° (NNW) 860 -2.1 -21.1°
Enters shadow 18:58:21 26° 345° (NNW) 863 -2.2 -21.2°
